Weather in Maicao

Colombia     11°22′47″N   72°14′39″W
temp.,
°C
wind,
m/s
gust,
m/s
humid.,
%
clouds,
%
prec.,
mm/h
press.,
hPa
HPBL,
m
27 february, sat
sat2701:00+25ene6117498 0.0 1013893
04:00+24ene61176100 0.1 1011686
07:00+25ene71174100 0.3 10141091
10:00+29e11145886 0.2 10141442
13:00+31e12135051 0.2 10111466
16:00+31e11124272 0.0 10091210
19:00+26ene9156545 0.0 1010923
22:00+26e1016690 0.0 1013985
28 february, sun
sun2801:00+25e712726 0.0 1012966
04:00+24e6127598 0.2 1011719
07:00+25e9137198 0.5 10131275
10:00+29e12155555 0.1 10141560
13:00+31e13144751 0.1 10111543
16:00+30e12134715 0.0 10081309
19:00+26ene10156218 0.0 1010980
22:00+25ene9146811 0.0 1012984
1 march, mon
mon101:00+25e6127047 0.0 1011845
04:00+24e5117698 0.1 1010572
07:00+25e7117381 0.1 10121172
10:00+28e10125731 0.0 10131468
13:00+30e11135023 0.0 10101558
16:00+31e1010460 0.0 10081359
19:00+27ene6116134 0.0 1010935
22:00+25ene6117163 0.0 1012960
2 march, tue
tue201:00+25e6117573 0.0 1011779
04:00+24e5107995 0.1 1011465
07:00+25e6107689 0.4 1013956
10:00+28e10116088 0.2 10141244
13:00+31e10103476 0.3 10111358
16:00+31e993078 0.0 10091249
19:00+27e6115748 0.0 1011514
22:00+25ene48717 0.0 1013500
3 march, wed
wed301:00+24ene5107819 0.1 1013722
04:00+24e5107820 0.1 1013474
07:00+25e7107530 0.3 10151016
10:00+28e9115438 0.1 10161317
13:00+31e10124319 0.1 10121346
16:00+31e99390 0.0 10101265
19:00+27ene611580 0.0 1012761
22:00+25ene611712 0.0 1014977